FENGYUN 1C DEB *, 47101

Orbit data source: Space-Track

FENGYUN 1C DEB *, 47101 is space debris in SSO originally from a launch on Mon, 10 May 1999 UTC launched from the Taiyaun Space Center, China (TSC). Fengyun 1C debris stems from the Chinese weather satellite Fengyun-1C, which was intentionally destroyed by a Chinese anti-satellite missile in 2007. This event dramatically increased the amount of space debris, with thousands of trackable fragments posing hazards to satellites and human spaceflight. The Fengyun 1C debris cloud has become a focal point in discussions about space sustainability and the need for international regulations to prevent the creation of new debris.

Loading next visibility...
Identifier
47101, 1999-025FBZ
Orbit
SSO
Country
Flag of CNCN / PRC
Related business
Manufacturer
Unknown
Mission
Spacecraft
Bus & Motor
Unknown
Mass
Unknown
Launch date (UTC)
1999-05-10 (27 years ago)
Launch vehicle
Unknown
Launch site
Taiyaun Space Center, China (TSC)
Object type
Payload
Rocket body
Debris
Shape & HBR
Unknown shape, 0.1 m
Radar Cross Section
Small (<0.1 m²)

Expand to show TLE details & history
Last TLE update: 1 day ago

TLE from 1 day ago
0 FENGYUN 1C DEB *
1 47101U 99025FBZ 26256.41259671  .00003641  00000-0  15682-2 0  9992
2 47101  98.8178 321.4246 0101739 350.4136   9.5098 14.22452384385610
Epoch: 2026-09-13T09:54Z
TLE epoch observation values (Epoch: 2026-09-13T09:54:08.355Z)
Latitude
-0.00004°
Longitude
-179.51782°
Altitude
747.795 km
Speed
7.518 km/s
True Right ascension
21h 25m 41s
True Declination
0° 00' 00"
Sunlit
Object was in full shadow at epoch
Visualization orbit readout
Latitude
Unknown
Longitude
Unknown
Altitude
Unknown
Speed
Unknown
Apparent Right ascension
Unknown
Apparent Declination
Unknown
Sunlit
N/A
Visualization observer readout
Local Sidereal Time
06:43:27
Azimuth
Unknown
Elevation
Unknown
Doppler factor
Unknown
Orbital elements
Apogee altitude
887.405 km
Perigee altitude
741.057 km
Semi-major axis
7,192.368 km
Eccentricity
0.01017
Inclination
98.8178°
RAAN
321.4246°
Arg. of periapsis
350.4136°
True anomaly
9.70486°
Mean anomaly
9.5098°
Eccentric anomaly
9.60708°
Mean motion
3.55824 °/min
Orbital period
101.17 mins
BSTAR
0.0015682
Loading maneuver chart data...
Computing Atmospheric mass density...

Documentation

Showing up to 5 results
|